Location: G�yn�k
(36.6721°N, 30.5542°E)
Time: 00:00:09
(UTC+00:00)

BREEZE-M DEB (TANK) - Pass Details

Date: 07 October 2020
Orbit: 333 x 12040 km, 49.7° (Epoch: 26 October)

Event Time Altitude Azimuth Distance (km) Brightness Sun altitude
Rises 03:06:08 0° 223° (SW) 14,146 8.8 -11.3°
Reaches altitude 10° 03:17:43 10° 224° (SW) 14,304 8.8 -9.0°
Maximum altitude 05:00:39 79° 324° (NW) 8,374 8.1 11.4°
Drops below altitude 10° 05:31:59 10° 58° (ENE) 6,378 8.1 17.4°
Sets 05:34:58 0° 60° (ENE) 6,695 8.2 17.9°
